QPF
0.00 0.00 0.00 0.00 0.00 0.00 0.00 0.00 0.00 0.00 0.00 0.00 0.00 0.00 0.00 0.00 0.00 0.00 0.00 0.01 0.00 0.00 0.00 0.00 0.00 0.00 0.00 0.00 0.00 0.00 0.00 0.00 0.01
0.00 0.00 0.00 0.00 0.00 0.00 0.00 0.00 0.00 0.00 0.04 0.02 0.03 0.02 0.01 0.00 0.00 0.00 0.01 0.03 0.02 0.01 0.00 0.00 0.00 0.00 0.00 0.00 0.00 0.00 0.00 0.00 0.00
0.00 0.00 0.00 0.00 0.00 0.00 0.00 0.00 0.00 0.01 0.10 0.13 0.12 0.03 0.02 0.02 0.01 0.01 0.00 0.01 0.01 0.02 0.01 0.00 0.00 0.00 0.00 0.00 0.00 0.00 0.00 0.00 0.00
0.00 0.00 0.00 0.00 0.00 0.00 0.00 0.00 0.00 0.01 0.05 0.03 0.01 0.00 0.00 0.00 0.00 0.00 0.00 0.00 0.02 0.03 0.02 0.00 0.00 0.00 0.00 0.00 0.00 0.00 0.00 0.00 0.00
0.00 0.00 0.00 0.00 0.00 0.00 0.00 0.00 0.00 0.00 0.00 0.00 0.08 0.17 0.05 0.02 0.00 0.00 0.00 0.00 0.01 0.02 0.01 0.01 0.00 0.00 0.00 0.00 0.00 0.04 0.02 0.00 0.00
0.00 0.00 0.00 0.00 0.00 0.00 0.00 0.00 0.00 0.00 0.00 0.00 0.10 0.26 0.06 0.02 0.02 0.03 0.03 0.01 0.00 0.00 0.00 0.01 0.01 0.00 0.00 0.00 0.00 0.00 0.00 0.00 0.00
0.00 0.00 0.00 0.00 0.00 0.00 0.00 0.00 0.00 0.00 0.00 0.00 0.01 0.06 0.02 0.01 0.00 0.02 0.03 0.06 0.06 0.03 0.01 0.02 0.01 0.00 0.00 0.00 0.00 0.00 0.00 0.00 0.00
0.00 0.00 0.00 0.00 0.00 0.00 0.00 0.00 0.00 0.00 0.00 0.00 0.00 0.01 0.00 0.00 0.00 0.00 0.02 0.03 0.04 0.05 0.06 0.05 0.05 0.02 0.01 0.00 0.00 0.00 0.00 0.00 0.00
0.00 0.00 0.00 0.00 0.00 0.00 0.00 0.00 0.00 0.00 0.00 0.00 0.00 0.02 0.07 0.03 0.00 0.00 0.01 0.00 0.00 0.00 0.00 0.04 0.06 0.03 0.03 0.00 0.01 0.00 0.00 0.00 0.00
0.00 0.00 0.00 0.00 0.00 0.00 0.00 0.00 0.00 0.00 0.00 0.00 0.00 0.01 0.02 0.06 0.16 0.05 0.02 0.00 0.00 0.00 0.00 0.01 0.00 0.01 0.01 0.00 0.00 0.00 0.00 0.00 0.00
0.00 0.00 0.00 0.00 0.00 0.00 0.00 0.00 0.00 0.00 0.00 0.00 0.00 0.00 0.00 0.02 0.10 0.02 0.02 0.00 0.00 0.00 0.00 0.00 0.00 0.00 0.01 0.00 0.00 0.00 0.02 0.00 0.00
0.00 0.00 0.00 0.00 0.00 0.00 0.00 0.00 0.00 0.00 0.00 0.00 0.00 0.00 0.00 0.00 0.00 0.00 0.00 0.00 0.00 0.00 0.00 0.00 0.01 0.02 0.00 0.00 0.00 0.03 0.09 0.03 0.00
0.00 0.00 0.00 0.00 0.00 0.00 0.00 0.00 0.00 0.00 0.00 0.00 0.00 0.00 0.00 0.00 0.00 0.00 0.00 0.00 0.00 0.00 0.00 0.00 0.00 0.01 0.00 0.00 0.00 0.04 0.11 0.04 0.00
0.00 0.00 0.00 0.00 0.00 0.00 0.00 0.00 0.00 0.00 0.00 0.00 0.00 0.00 0.00 0.00 0.00 0.00 0.00 0.00 0.00 0.00 0.00 0.00 0.00 0.00 0.00 0.00 0.00 0.03 0.12 0.07 0.00
0.00 0.00 0.00 0.00 0.00 0.00 0.00 0.00 0.00 0.00 0.00 0.00 0.00 0.00 0.00 0.00 0.00 0.00 0.00 0.00 0.00 0.00 0.00 0.00 0.00 0.00 0.00 0.00 0.00 0.00 0.03 0.11 0.03
0.00 0.00 0.00 0.00 0.00 0.00 0.00 0.00 0.00 0.00 0.00 0.00 0.00 0.00 0.00 0.00 0.00 0.00 0.00 0.00 0.00 0.00 0.00 0.00 0.00 0.00 0.00 0.00 0.00 0.00 0.01 0.03 0.08
0.00 0.00 0.00 0.00 0.00 0.00 0.00 0.00 0.00 0.00 0.00 0.00 0.00 0.00 0.00 0.00 0.00 0.00 0.00 0.00 0.00 0.00 0.00 0.00 0.00 0.00 0.00 0.00 0.00 0.00 0.00 0.02 0.02
0.00 0.00 0.00 0.00 0.00 0.00 0.00 0.00 0.00 0.00 0.00 0.00 0.00 0.00 0.00 0.00 0.00 0.00 0.00 0.00 0.00 0.00 0.00 0.00 0.00 0.00 0.00 0.00 0.00 0.00 0.02 0.01 0.01
0.00 0.00 0.00 0.00 0.00 0.00 0.00 0.00 0.00 0.00 0.00 0.00 0.00 0.00 0.00 0.00 0.00 0.00 0.00 0.00 0.00 0.00 0.00 0.00 0.00 0.00 0.00 0.00 0.00 0.00 0.01 0.01 0.01
0.00 0.00 0.00 0.00 0.00 0.00 0.00 0.00 0.00 0.00 0.00 0.00 0.00 0.00 0.00 0.00 0.00 0.00 0.00 0.00 0.00 0.00 0.00 0.00 0.00 0.00 0.00 0.00 0.00 0.00 0.00 0.03 0.03
MSLP
1005.32 1005.36 1005.81 1006.58 1007.50 1008.52 1009.27 1010.24 1011.15 1011.93 1012.88 1013.65 1014.32 1014.93 1015.43 1016.03 1016.61 1016.95 1017.25 1017.46 1017.64 1017.89 1017.88 1017.81 1017.97 1018.36 1018.50 1018.72 1018.97 1019.24 1019.65 1019.98 1020.11
1006.16 1006.05 1006.50 1007.12 1007.53 1008.34 1009.10 1009.94 1010.80 1012.03 1012.71 1013.33 1013.99 1014.79 1015.21 1015.36 1015.69 1016.21 1016.42 1016.98 1017.33 1017.47 1017.77 1017.73 1017.74 1017.94 1018.19 1018.23 1018.47 1018.78 1018.99 1019.42 1019.49
1007.01 1007.11 1007.21 1007.46 1007.92 1008.66 1009.49 1010.34 1011.33 1012.13 1012.76 1013.04 1013.91 1013.30 1014.57 1015.15 1015.20 1015.41 1015.68 1016.50 1016.71 1016.95 1017.06 1017.41 1017.48 1017.52 1017.66 1017.76 1017.89 1018.21 1018.67 1018.72 1018.84
1007.99 1007.97 1008.10 1008.48 1008.92 1009.57 1010.11 1010.70 1011.19 1011.72 1012.32 1013.17 1013.78 1014.00 1014.35 1014.42 1014.68 1015.16 1015.54 1015.64 1016.22 1016.32 1016.55 1016.71 1017.08 1017.13 1017.22 1017.24 1017.38 1017.61 1017.89 1017.98 1018.05
1008.72 1008.88 1009.10 1009.32 1009.78 1010.11 1010.47 1010.75 1011.06 1011.38 1011.75 1012.73 1013.31 1013.56 1014.32 1014.11 1013.54 1014.35 1014.50 1014.66 1015.23 1015.67 1015.87 1016.01 1016.28 1016.50 1016.51 1016.56 1016.65 1016.90 1017.06 1017.17 1017.25
1008.75 1009.18 1009.43 1009.54 1009.87 1010.39 1010.74 1010.88 1011.10 1011.10 1011.78 1012.19 1012.54 1012.87 1012.75 1013.03 1013.03 1013.37 1013.62 1013.77 1014.31 1014.76 1015.04 1015.12 1015.28 1015.52 1015.62 1015.62 1015.67 1015.98 1016.16 1016.32 1016.51
1008.89 1009.38 1009.86 1010.15 1010.46 1010.71 1011.10 1011.20 1011.29 1011.21 1011.37 1011.75 1011.93 1011.77 1011.29 1012.16 1012.44 1012.69 1013.30 1013.63 1013.92 1014.11 1014.24 1014.25 1014.43 1014.58 1014.64 1014.76 1014.81 1014.99 1015.12 1015.35 1015.55
1008.89 1009.31 1009.98 1010.68 1010.98 1011.29 1011.31 1011.52 1011.62 1011.62 1011.41 1011.82 1011.93 1012.39 1011.83 1011.51 1011.85 1012.39 1012.56 1012.93 1013.29 1013.47 1013.36 1013.41 1013.52 1013.85 1013.87 1014.02 1013.97 1014.06 1014.02 1014.32 1014.61
1009.14 1009.50 1010.11 1010.62 1011.21 1011.47 1011.62 1011.63 1011.81 1011.73 1011.43 1011.26 1011.19 1011.37 1012.89 1012.92 1012.65 1012.75 1013.35 1013.24 1012.75 1012.80 1012.76 1012.59 1012.62 1012.97 1013.03 1013.26 1013.05 1012.80 1013.24 1013.62 1013.77
1009.76 1009.83 1009.94 1010.37 1010.74 1011.11 1011.22 1011.64 1012.04 1011.86 1011.54 1011.15 1011.17 1011.19 1011.41 1012.34 1011.59 1012.90 1012.72 1012.55 1012.39 1012.53 1012.45 1012.18 1012.02 1012.00 1012.11 1012.11 1011.95 1012.34 1012.94 1013.41 1013.55
1010.30 1010.26 1010.10 1009.97 1010.37 1010.65 1010.77 1011.27 1011.80 1011.90 1011.71 1011.39 1011.26 1011.39 1011.87 1012.12 1012.24 1012.06 1012.49 1012.32 1011.74 1012.00 1011.79 1011.61 1011.23 1011.25 1011.44 1011.33 1011.27 1011.77 1012.40 1012.71 1013.12
1011.08 1010.93 1010.65 1010.31 1010.31 1010.59 1010.90 1011.05 1011.11 1011.75 1011.67 1011.56 1011.31 1011.31 1011.72 1012.27 1012.54 1013.00 1013.01 1012.03 1011.51 1011.62 1011.43 1011.22 1010.64 1010.54 1010.81 1010.83 1010.63 1011.06 1011.64 1012.28 1012.27
1011.62 1011.57 1011.40 1011.15 1010.75 1010.49 1010.60 1011.10 1011.45 1011.54 1011.38 1011.33 1011.04 1010.84 1010.89 1011.10 1011.45 1011.65 1011.75 1011.69 1011.59 1011.21 1011.01 1010.66 1010.34 1010.12 1010.19 1010.31 1010.39 1010.50 1010.98 1011.71 1011.35
1012.50 1012.37 1012.14 1011.99 1011.47 1011.23 1011.40 1011.48 1011.58 1011.58 1011.59 1011.14 1010.61 1010.46 1010.58 1010.94 1011.08 1010.75 1010.72 1010.95 1010.88 1010.78 1010.60 1010.62 1010.43 1010.21 1009.88 1010.05 1010.00 1010.08 1010.47 1010.89 1011.01
1012.91 1012.67 1012.36 1012.22 1012.04 1011.98 1012.05 1011.97 1011.78 1011.63 1011.53 1011.43 1011.52 1011.42 1011.04 1010.76 1010.62 1010.41 1010.28 1010.29 1010.33 1010.56 1010.48 1010.50 1010.46 1010.47 1010.11 1010.31 1010.19 1010.19 1010.27 1010.15 1010.73
1013.26 1013.17 1012.99 1012.85 1012.72 1012.23 1011.98 1012.05 1012.09 1011.76 1011.56 1011.50 1011.39 1011.32 1011.20 1010.79 1010.18 1010.03 1010.09 1010.09 1010.06 1010.11 1010.30 1010.25 1010.20 1010.03 1010.04 1010.29 1010.40 1010.35 1010.06 1009.91 1010.13
1013.22 1013.17 1013.04 1012.97 1012.76 1012.44 1011.93 1011.83 1011.90 1011.82 1011.48 1011.41 1011.27 1011.06 1010.72 1010.59 1010.39 1010.06 1010.09 1009.85 1009.43 1009.51 1009.70 1009.85 1009.99 1009.95 1010.24 1010.41 1010.61 1010.54 1010.48 1010.40 1010.26
1013.55 1013.25 1012.92 1012.80 1012.65 1012.36 1012.03 1011.61 1011.21 1011.03 1010.88 1010.71 1010.45 1010.27 1010.09 1009.99 1009.78 1009.78 1009.88 1009.36 1008.85 1008.81 1008.98 1009.27 1009.49 1009.82 1010.01 1010.07 1010.21 1010.31 1010.14 1009.85 1009.74
1013.47 1013.33 1012.99 1012.66 1012.32 1011.95 1011.53 1011.20 1010.75 1010.40 1010.29 1010.16 1009.75 1009.36 1009.05 1008.72 1008.52 1008.54 1008.53 1008.56 1008.29 1008.69 1008.69 1009.16 1009.48 1009.63 1010.00 1009.80 1009.83 1010.07 1010.11 1010.03 1009.80
1013.19 1013.00 1012.65 1012.32 1012.03 1011.67 1011.20 1010.61 1010.09 1009.56 1009.18 1009.13 1008.81 1008.44 1008.08 1007.85 1007.63 1007.30 1007.10 1007.21 1007.25 1007.48 1007.73 1008.32 1008.73 1008.99 1009.24 1009.55 1009.57 1009.75 1009.73 1009.53 1009.49
Thickness
5876 5879 5881 5873 5866 5858 5852 5844 5838 5832 5822 5813 5808 5803 5799 5795 5789 5784 5782 5781 5781 5780 5779 5782 5780 5778 5778 5778 5775 5772 5768 5766 5765
5865 5873 5871 5866 5867 5861 5855 5845 5837 5827 5820 5814 5807 5801 5798 5799 5797 5790 5786 5781 5779 5780 5778 5779 5778 5777 5778 5778 5776 5772 5770 5768 5768
5856 5860 5862 5863 5861 5857 5851 5844 5834 5826 5820 5814 5803 5808 5800 5796 5798 5796 5793 5780 5777 5778 5779 5778 5777 5778 5778 5779 5777 5774 5771 5772 5771
5845 5850 5852 5851 5849 5847 5843 5839 5833 5828 5821 5810 5799 5797 5793 5794 5795 5795 5792 5787 5776 5778 5779 5780 5779 5779 5778 5778 5778 5777 5775 5775 5775
5837 5839 5839 5839 5838 5838 5835 5833 5830 5826 5823 5811 5802 5794 5777 5785 5796 5793 5794 5793 5782 5781 5781 5782 5782 5782 5782 5781 5781 5780 5777 5776 5778
5834 5832 5833 5835 5835 5830 5828 5828 5825 5825 5818 5813 5807 5797 5778 5789 5797 5798 5797 5797 5790 5786 5785 5786 5788 5788 5787 5788 5787 5784 5782 5781 5780
5830 5827 5824 5824 5822 5822 5819 5819 5817 5819 5816 5811 5807 5809 5810 5805 5806 5805 5799 5797 5793 5790 5791 5792 5792 5794 5795 5793 5792 5791 5790 5788 5787
5823 5821 5816 5811 5807 5807 5809 5807 5808 5807 5809 5804 5802 5798 5804 5807 5805 5802 5803 5799 5795 5794 5796 5797 5800 5797 5800 5799 5799 5798 5800 5797 5794
5814 5812 5806 5803 5798 5797 5798 5799 5798 5800 5802 5802 5804 5800 5785 5784 5788 5788 5783 5789 5799 5799 5798 5802 5803 5800 5802 5801 5806 5808 5803 5800 5798
5800 5802 5802 5797 5795 5794 5793 5790 5789 5791 5795 5800 5799 5797 5793 5785 5789 5770 5785 5791 5796 5796 5797 5801 5802 5804 5806 5806 5810 5806 5802 5798 5798
5789 5792 5795 5797 5794 5792 5791 5787 5784 5783 5788 5791 5791 5789 5783 5778 5772 5767 5780 5781 5795 5794 5798 5800 5803 5805 5805 5809 5811 5806 5800 5798 5798
5774 5777 5783 5788 5790 5786 5782 5782 5784 5778 5778 5781 5783 5783 5779 5772 5771 5768 5771 5784 5791 5791 5791 5794 5801 5805 5804 5806 5810 5805 5801 5797 5800
5762 5766 5769 5772 5778 5782 5779 5773 5773 5771 5772 5773 5775 5780 5780 5780 5778 5776 5777 5779 5781 5786 5789 5791 5796 5800 5802 5804 5806 5806 5800 5795 5802
5748 5750 5753 5756 5761 5762 5762 5764 5762 5758 5759 5762 5770 5773 5772 5770 5769 5773 5776 5776 5778 5780 5781 5782 5785 5789 5795 5797 5801 5803 5796 5793 5798
5734 5736 5740 5743 5743 5743 5745 5748 5750 5747 5747 5752 5751 5751 5754 5758 5761 5764 5766 5767 5770 5769 5770 5771 5774 5775 5782 5784 5788 5790 5790 5791 5789
5723 5724 5726 5727 5726 5730 5734 5734 5731 5733 5737 5738 5737 5738 5739 5743 5749 5752 5754 5754 5755 5757 5757 5759 5761 5766 5771 5772 5775 5779 5782 5784 5782
5714 5714 5714 5714 5715 5715 5720 5722 5721 5720 5724 5724 5725 5725 5729 5731 5731 5734 5735 5740 5746 5747 5747 5747 5748 5751 5752 5757 5761 5766 5771 5772 5772
5699 5701 5703 5702 5700 5702 5705 5709 5712 5714 5713 5714 5715 5717 5719 5719 5721 5720 5719 5725 5732 5736 5741 5741 5742 5741 5743 5746 5750 5754 5758 5763 5767
5691 5689 5690 5689 5690 5691 5694 5697 5700 5703 5702 5701 5703 5705 5710 5714 5715 5714 5713 5713 5719 5717 5724 5726 5727 5728 5729 5737 5742 5742 5744 5746 5750
5679 5677 5677 5676 5676 5678 5679 5683 5686 5691 5693 5690 5692 5695 5702 5704 5705 5708 5709 5708 5709 5709 5715 5712 5716 5720 5721 5723 5729 5732 5735 5737 5739